Powrót do katalogu

ONEWEB-0436

AktywnyŁącznośćPO
NORAD 51633·PAYLOAD·🇬🇧 United Kingdom

Wystrzelony Feb 10, 2022 z Guiana Space Centre

Loading…

Następne Przeloty (najbliższe 24 godziny)

TLE

ŚwieżeSource: CelesTrak SupGP

Epoka: Sep 14, 2026, 16:31 UTC

1 51633C 22012M   26257.68869630  .00001846  00000+0  47601-2 0  2578
2 51633  87.9211 348.0791 0002033  96.6049  15.7353 13.17647303    12

Śledź ONEWEB-0436 w czasie rzeczywistym z AllMySat

Download on the App Store